timestamp,surface_pressure_avg,surface_temp_avg,battery_voltage,lat,long
2019-05-22 00:00:00+00:00,337.5196,2.32,12.97,47.84626,-54.09684
2019-05-22 00:10:00+00:00,344.9698,1.9,12.89,47.84626,-54.09684
2019-05-22 00:20:00+00:00,347.2396,1.9,12.97,47.84626,-54.09684
2019-05-22 00:30:00+00:00,347.7213,1.85,12.97,47.84626,-54.09684
2019-05-22 00:40:00+00:00,361.3712,1.8,12.97,47.84626,-54.09684
2019-05-22 00:50:00+00:00,361.673,1.7,12.97,47.84626,-54.09684
2019-05-22 01:00:00+00:00,358.7712,1.73,12.89,47.84626,-54.09684
2019-05-22 01:10:00+00:00,360.4095,1.76,12.81,47.84626,-54.09684
2019-05-22 01:20:00+00:00,368.598,1.8,12.89,47.84626,-54.09684
2019-05-22 01:30:00+00:00,375.5745,1.78,12.89,47.84626,-54.09684
2019-05-22 01:40:00+00:00,373.3746,1.7,12.97,47.84626,-54.09684
2019-05-22 01:50:00+00:00,377.2312,1.6,12.97,47.84626,-54.09684
2019-05-22 02:00:00+00:00,378.1646,1.6,12.89,47.84626,-54.09684
2019-05-22 02:10:00+00:00,372.4846,1.6,12.81,47.84626,-54.09684
2019-05-22 02:20:00+00:00,379.278,1.66,12.89,47.84626,-54.09684
2019-05-22 02:30:00+00:00,378.5212,1.74,12.89,47.84626,-54.09684
2019-05-22 02:40:00+00:00,373.2629,1.82,12.89,47.84626,-54.09684
2019-05-22 02:50:00+00:00,366.4429,1.97,12.89,47.84626,-54.09684
2019-05-22 03:00:00+00:00,360.6696,2.28,12.81,47.84626,-54.09684
2019-05-22 03:10:00+00:00,362.1779,2.5,12.73,47.84626,-54.09684
2019-05-22 03:20:00+00:00,358.2762,2.76,12.81,47.84626,-54.09684
2019-05-22 03:30:00+00:00,357.9462,2.9,12.81,47.84626,-54.09684
2019-05-22 03:40:00+00:00,347.7496,2.9,12.89,47.84626,-54.09684
2019-05-22 03:50:00+00:00,344.103,2.9,12.89,47.84626,-54.09684
2019-05-22 04:00:00+00:00,337.358,2.83,12.81,47.84626,-54.09684
2019-05-22 04:10:00+00:00,330.4297,2.8,12.73,47.84626,-54.09684
2019-05-22 04:20:00+00:00,316.7463,2.77,12.81,47.84626,-54.09684
2019-05-22 04:30:00+00:00,308.1296,2.7,12.81,47.84626,-54.09684
2019-05-22 04:40:00+00:00,299.9364,2.7,12.89,47.84626,-54.09684
2019-05-22 04:50:00+00:00,294.8313,2.7,12.89,47.84626,-54.09684
2019-05-22 05:00:00+00:00,280.5831,2.7,12.81,47.84626,-54.09684
2019-05-22 05:10:00+00:00,267.3764,3.2,12.73,47.84626,-54.09684
2019-05-22 05:20:00+00:00,258.2864,2.7,12.81,47.84626,-54.09684
2019-05-22 05:30:00+00:00,249.2981,2.72,12.81,47.84626,-54.09684
2019-05-22 05:40:00+00:00,243.1581,3.27,12.81,47.84626,-54.09684
2019-05-22 05:50:00+00:00,236.8264,3.29,12.81,47.84626,-54.09684
2019-05-22 06:00:00+00:00,223.0648,2.9,12.73,47.84626,-54.09684
2019-05-22 06:10:00+00:00,212.3698,2.8,12.65,47.84626,-54.09684
2019-05-22 06:20:00+00:00,206.3064,2.8,12.73,47.84626,-54.09684
2019-05-22 06:30:00+00:00,200.6832,2.79,12.81,47.84626,-54.09684
2019-05-22 06:40:00+00:00,193.8548,3.16,12.81,47.84626,-54.09684
2019-05-22 06:50:00+00:00,187.9214,3.26,12.81,47.84626,-54.09684
2019-05-22 07:00:00+00:00,186.3631,2.8,12.73,47.84626,-54.09684
2019-05-22 07:10:00+00:00,193.2881,2.84,12.65,47.84626,-54.09684
2019-05-22 07:20:00+00:00,201.0598,3.48,12.73,47.84626,-54.09684
2019-05-22 07:30:00+00:00,201.6515,2.9,12.73,47.84626,-54.09684
2019-05-22 07:40:00+00:00,205.473,2.8,12.81,47.84626,-54.09684
2019-05-22 07:50:00+00:00,204.3598,2.75,12.81,47.84626,-54.09684
2019-05-22 08:00:00+00:00,205.1331,2.83,12.73,47.84626,-54.09684
2019-05-22 08:10:00+00:00,213.1281,2.9,12.65,47.84626,-54.09684
2019-05-22 08:20:00+00:00,220.1815,2.89,12.73,47.84626,-54.09684
2019-05-22 08:30:00+00:00,218.9048,2.8,12.73,47.84626,-54.09684
2019-05-22 08:40:00+00:00,219.7231,2.8,12.73,47.84626,-54.09684
2019-05-22 08:50:00+00:00,226.1298,2.84,12.73,47.84626,-54.09684
2019-05-22 09:00:00+00:00,232.5298,2.8,12.65,47.84626,-54.09684
2019-05-22 09:10:00+00:00,236.6731,2.8,12.65,47.84626,-54.09684
2019-05-22 09:20:00+00:00,238.4514,2.84,12.73,47.84626,-54.09684
2019-05-22 09:30:00+00:00,238.3781,2.9,12.73,47.84626,-54.09684
2019-05-22 09:40:00+00:00,236.5298,2.9,12.73,47.84626,-54.09684
2019-05-22 09:50:00+00:00,234.5114,2.75,12.73,47.84626,-54.09684
2019-05-22 10:00:00+00:00,237.3715,2.9,12.65,47.84626,-54.09684
2019-05-22 10:10:00+00:00,244.2648,3.01,12.65,47.84626,-54.09684
2019-05-22 10:20:00+00:00,240.3015,3.3,12.73,47.84626,-54.09684
2019-05-22 10:30:00+00:00,236.9264,2.91,12.73,47.84626,-54.09684
2019-05-22 10:40:00+00:00,249.5831,2.56,12.73,47.84626,-54.09684
2019-05-22 10:50:00+00:00,258.2914,1.95,12.73,47.84626,-54.09684
2019-05-22 11:00:00+00:00,251.0031,2.0,12.65,47.84626,-54.09684
2019-05-22 11:10:00+00:00,244.8081,2.64,12.65,47.84626,-54.09684
2019-05-22 11:20:00+00:00,260.8147,2.12,12.73,47.84626,-54.09684
2019-05-22 11:30:00+00:00,273.0197,2.02,12.73,47.84626,-54.09684
2019-05-22 11:40:00+00:00,272.7498,2.1,12.81,47.84626,-54.09684
2019-05-22 11:50:00+00:00,274.6414,2.01,12.81,47.84626,-54.09684
2019-05-22 12:00:00+00:00,282.968,1.93,12.73,47.84626,-54.09684
2019-05-22 12:10:00+00:00,285.8047,1.9,12.65,47.84626,-54.09684
2019-05-22 12:20:00+00:00,291.163,2.01,12.73,47.84626,-54.09684
2019-05-22 12:30:00+00:00,304.5914,2.45,12.73,47.84626,-54.09684
2019-05-22 12:40:00+00:00,310.6396,2.14,12.81,47.84626,-54.09684
2019-05-22 12:50:00+00:00,310.138,2.56,12.81,47.84626,-54.09684
2019-05-22 13:00:00+00:00,318.4496,2.05,12.81,47.84626,-54.09684
2019-05-22 13:10:00+00:00,333.6514,2.19,12.73,47.84626,-54.09684
2019-05-22 13:20:00+00:00,340.1063,2.3,12.81,47.84626,-54.09684
2019-05-22 13:30:00+00:00,343.343,2.2,12.81,47.84626,-54.09684
2019-05-22 13:40:00+00:00,347.3863,2.05,12.89,47.84626,-54.09684
2019-05-22 13:50:00+00:00,350.2863,2.0,12.97,47.84626,-54.09684
2019-05-22 14:00:00+00:00,345.2696,1.9,12.89,47.84626,-54.09684
2019-05-22 14:10:00+00:00,343.2213,1.86,12.81,47.84626,-54.09684
2019-05-22 14:20:00+00:00,338.853,1.8,12.89,47.84626,-54.09684
2019-05-22 14:30:00+00:00,332.1497,1.79,12.97,47.84626,-54.09684
2019-05-22 14:40:00+00:00,328.0297,1.7,13.05,47.84626,-54.09684
2019-05-22 14:50:00+00:00,332.8279,1.7,13.13,47.84626,-54.09684
2019-05-22 15:00:00+00:00,330.738,1.7,13.13,47.84626,-54.09684
2019-05-22 15:10:00+00:00,323.5647,1.83,13.05,47.84626,-54.09684
2019-05-22 15:20:00+00:00,322.3663,1.83,13.29,47.84626,-54.09684
2019-05-22 15:30:00+00:00,327.7263,1.8,13.37,47.84626,-54.09684
2019-05-22 15:40:00+00:00,327.858,1.84,13.53,47.84626,-54.09684
2019-05-22 15:50:00+00:00,317.9514,1.9,13.6,47.84626,-54.09684
2019-05-22 16:00:00+00:00,309.1797,1.9,13.6,47.84626,-54.09684
2019-05-22 16:10:00+00:00,315.673,2.09,13.6,47.84626,-54.09684
2019-05-22 16:20:00+00:00,311.6997,1.92,13.76,47.84626,-54.09684
2019-05-22 16:30:00+00:00,296.623,1.9,13.84,47.84626,-54.09684
2019-05-22 16:40:00+00:00,290.203,1.9,14.08,47.84626,-54.09684
2019-05-22 16:50:00+00:00,303.6981,1.99,14.32,47.84626,-54.09684
2019-05-22 17:00:00+00:00,296.2347,1.9,14.4,47.84626,-54.09684
2019-05-22 17:10:00+00:00,276.1697,2.3,14.24,47.84626,-54.09684
2019-05-22 17:20:00+00:00,270.8848,2.46,14.32,47.84626,-54.09684
2019-05-22 17:30:00+00:00,263.258,2.5,14.24,47.84626,-54.09684
2019-05-22 17:40:00+00:00,248.0964,2.08,14.32,47.84626,-54.09684
2019-05-22 17:50:00+00:00,239.2448,2.3,14.4,47.84626,-54.09684
2019-05-22 18:00:00+00:00,230.1515,1.9,14.32,47.84626,-54.09684
2019-05-22 18:10:00+00:00,222.4281,1.83,14.24,47.84626,-54.09684
2019-05-22 18:20:00+00:00,218.8314,1.8,14.32,47.84626,-54.09684
2019-05-22 18:30:00+00:00,214.5365,1.84,14.32,47.84626,-54.09684
2019-05-22 18:40:00+00:00,208.9014,1.7,14.32,47.84626,-54.09684
2019-05-22 18:50:00+00:00,210.8948,1.6,14.4,47.84626,-54.09684
2019-05-22 19:00:00+00:00,213.5114,1.62,14.4,47.84626,-54.09684
2019-05-22 19:10:00+00:00,203.2014,1.67,14.32,47.84626,-54.09684
2019-05-22 19:20:00+00:00,198.7548,2.06,14.4,47.84626,-54.09684
2019-05-22 19:30:00+00:00,203.7598,2.4,14.4,47.84626,-54.09684
2019-05-22 19:40:00+00:00,203.2231,2.34,14.32,47.84626,-54.09684
2019-05-22 19:50:00+00:00,204.2981,2.2,14.32,47.84626,-54.09684
2019-05-22 20:00:00+00:00,207.6648,2.1,14.24,47.84626,-54.09684
2019-05-22 20:10:00+00:00,206.6497,1.88,14.24,47.84626,-54.09684
2019-05-22 20:20:00+00:00,209.1264,1.9,14.4,47.84626,-54.09684
2019-05-22 20:30:00+00:00,215.4832,1.8,14.4,47.84626,-54.09684
2019-05-22 20:40:00+00:00,217.8498,1.8,14.48,47.84626,-54.09684
2019-05-22 20:50:00+00:00,220.5831,1.83,14.48,47.84626,-54.09684
2019-05-22 21:00:00+00:00,226.5215,1.89,14.32,47.84626,-54.09684
2019-05-22 21:10:00+00:00,231.2547,1.74,14.16,47.84626,-54.09684
2019-05-22 21:20:00+00:00,233.3114,1.7,14.24,47.84626,-54.09684
2019-05-22 21:30:00+00:00,239.0981,1.64,14.16,47.84626,-54.09684
2019-05-22 21:40:00+00:00,243.5981,1.9,14.08,47.84626,-54.09684
2019-05-22 21:50:00+00:00,245.9064,1.9,14.08,47.84626,-54.09684
2019-05-22 22:00:00+00:00,248.7765,1.9,14.0,47.84626,-54.09684
2019-05-22 22:10:00+00:00,255.2164,1.69,13.84,47.84626,-54.09684
2019-05-22 22:20:00+00:00,261.6264,1.3,13.84,47.84626,-54.09684
2019-05-22 22:30:00+00:00,263.0048,1.47,13.76,47.84626,-54.09684
2019-05-22 22:40:00+00:00,260.1564,1.2,13.76,47.84626,-54.09684
2019-05-22 22:50:00+00:00,264.5681,1.2,13.68,47.84626,-54.09684
2019-05-22 23:00:00+00:00,273.473,1.66,13.6,47.84626,-54.09684
2019-05-22 23:10:00+00:00,279.0714,1.56,13.44,47.84626,-54.09684
2019-05-22 23:20:00+00:00,281.9831,1.3,13.44,47.84626,-54.09684
2019-05-22 23:30:00+00:00,286.1931,1.0,13.37,47.84626,-54.09684
2019-05-22 23:40:00+00:00,293.1997,0.97,13.37,47.84626,-54.09684
2019-05-22 23:50:00+00:00,304.1296,0.95,13.29,47.84626,-54.09684
